�������l�o���
Date,Time,MP-1(��Sv/h),MP-2(��Sv/h),MP-3(��Sv/h),MP-4(��Sv/h),MP-5(��Sv/h),MP-6(��Sv/h),MP-7(��Sv/h),MP-8(��Sv/h),����,����(m/s),���J
2020/12/13,00:00,0.676,0.971,0.614,1.219,0.860,0.385,0.678,0.638,�k�k��,4.5,��
2020/12/13,00:10,0.676,0.972,0.614,1.221,0.860,0.386,0.677,0.636,�k��,4.4,��
2020/12/13,00:20,0.675,0.971,0.615,1.219,0.860,0.385,0.678,0.638,�k��,5.0,��
2020/12/13,00:30,0.674,0.971,0.615,1.220,0.860,0.384,0.679,0.637,�k��,3.9,��
2020/12/13,00:40,0.675,0.970,0.616,1.222,0.860,0.387,0.679,0.637,�k��,3.3,��
2020/12/13,00:50,0.678,0.971,0.616,1.221,0.860,0.385,0.678,0.638,�k��,3.1,��
2020/12/13,01:00,0.675,0.971,0.615,1.219,0.860,0.385,0.678,0.637,�k��,3.4,��
2020/12/13,01:10,0.675,0.969,0.615,1.219,0.858,0.385,0.679,0.638,�k��,5.3,��
2020/12/13,01:20,0.676,0.971,0.615,1.220,0.859,0.384,0.678,0.638,�k��,5.8,��
2020/12/13,01:30,0.676,0.968,0.615,1.221,0.860,0.385,0.677,0.636,�k�k��,5.4,��
2020/12/13,01:40,0.677,0.971,0.615,1.220,0.862,0.384,0.679,0.638,�k�k��,5.5,��
2020/12/13,01:50,0.677,0.968,0.616,1.221,0.860,0.386,0.679,0.639,�k��,5.2,��
2020/12/13,02:00,0.677,0.970,0.614,1.222,0.857,0.386,0.677,0.639,�k��,4.3,��
2020/12/13,02:10,0.676,0.970,0.616,1.220,0.858,0.386,0.678,0.636,�k��,6.0,��
2020/12/13,02:20,0.675,0.969,0.617,1.222,0.860,0.386,0.677,0.637,�k��,5.8,��
2020/12/13,02:30,0.674,0.971,0.617,1.220,0.857,0.385,0.678,0.637,�k�k��,5.9,��
2020/12/13,02:40,0.675,0.972,0.615,1.220,0.860,0.384,0.678,0.638,�k�k��,5.7,��
2020/12/13,02:50,0.679,0.971,0.615,1.219,0.859,0.384,0.679,0.636,�k��,4.5,��
2020/12/13,03:00,0.676,0.969,0.614,1.218,0.859,0.384,0.678,0.637,�k��,3.9,��
2020/12/13,03:10,0.677,0.970,0.615,1.220,0.861,0.385,0.677,0.638,�k��,3.0,��
2020/12/13,03:20,0.677,0.970,0.616,1.221,0.862,0.385,0.678,0.638,�k�k��,4.3,��
2020/12/13,03:30,0.677,0.969,0.615,1.222,0.861,0.385,0.678,0.638,�k�k��,4.6,��
2020/12/13,03:40,0.677,0.969,0.616,1.223,0.860,0.385,0.678,0.638,�k�k��,4.2,��
2020/12/13,03:50,0.676,0.972,0.615,1.221,0.860,0.386,0.678,0.637,�k�k��,4.3,��
2020/12/13,04:00,0.674,0.969,0.617,1.221,0.861,0.385,0.678,0.637,�k�k��,4.8,��
2020/12/13,04:10,0.677,0.969,0.615,1.222,0.860,0.386,0.679,0.639,�k�k��,4.4,��
2020/12/13,04:20,0.678,0.971,0.616,1.222,0.863,0.386,0.678,0.637,�k�k��,4.7,��
2020/12/13,04:30,0.678,0.970,0.617,1.220,0.860,0.384,0.680,0.638,�k�k��,4.5,��
2020/12/13,04:40,0.676,0.971,0.616,1.223,0.859,0.384,0.678,0.638,�k��,3.7,��
2020/12/13,04:50,0.677,0.970,0.616,1.221,0.858,0.385,0.677,0.637,�k��,3.7,��
2020/12/13,05:00,0.677,0.969,0.615,1.219,0.860,0.386,0.678,0.637,�k��,3.4,��
2020/12/13,05:10,0.676,0.969,0.615,1.221,0.861,0.385,0.679,0.638,�k��,3.4,��
2020/12/13,05:20,0.674,0.968,0.616,1.221,0.861,0.384,0.680,0.637,�k��,3.3,�L
2020/12/13,05:30,0.677,0.969,0.615,1.222,0.861,0.386,0.681,0.638,���k��,3.0,�L
2020/12/13,05:40,0.677,0.971,0.616,1.222,0.860,0.386,0.678,0.638,��,2.8,��
2020/12/13,05:50,0.675,0.970,0.616,1.220,0.860,0.386,0.678,0.637,��,2.9,�L
2020/12/13,06:00,0.676,0.971,0.617,1.220,0.860,0.385,0.678,0.638,��,2.6,�L
2020/12/13,06:10,0.676,0.971,0.616,1.220,0.860,0.387,0.679,0.637,���k��,2.3,�L
2020/12/13,06:20,0.676,0.971,0.617,1.221,0.861,0.385,0.678,0.638,���쐼,2.0,�L
2020/12/13,06:30,0.675,0.968,0.616,1.222,0.858,0.386,0.677,0.640,���k��,2.0,�L
2020/12/13,06:40,0.678,0.969,0.616,1.221,0.859,0.386,0.679,0.637,���k��,1.7,�L
2020/12/13,06:50,0.677,0.968,0.617,1.222,0.861,0.385,0.679,0.638,��,1.4,��
2020/12/13,07:00,0.676,0.969,0.616,1.223,0.860,0.386,0.678,0.638,��,1.2,��
2020/12/13,07:10,0.677,0.967,0.614,1.219,0.861,0.385,0.678,0.636,���쐼,1.1,��
2020/12/13,07:20,0.675,0.968,0.616,1.222,0.859,0.385,0.679,0.637,�쐼,0.6,��
2020/12/13,07:30,0.676,0.967,0.616,1.222,0.861,0.385,0.678,0.638,�쐼,0.6,��
2020/12/13,07:40,0.675,0.969,0.613,1.220,0.860,0.386,0.679,0.638,-,CALM,��
2020/12/13,07:50,0.675,0.968,0.615,1.220,0.860,0.385,0.679,0.637,�쐼,0.8,��
2020/12/13,08:00,0.676,0.969,0.614,1.219,0.859,0.385,0.679,0.637,�k�k��,0.9,��
2020/12/13,08:10,0.677,0.970,0.615,1.219,0.860,0.385,0.678,0.638,�k��,1.2,��
2020/12/13,08:20,0.675,0.970,0.615,1.220,0.860,0.386,0.680,0.636,�k��,1.2,��
2020/12/13,08:30,0.677,0.968,0.615,1.221,0.861,0.386,0.678,0.638,�k��,1.2,��
2020/12/13,08:40,0.675,0.968,0.616,1.218,0.859,0.386,0.679,0.638,�k,1.1,��
2020/12/13,08:50,0.677,0.969,0.617,1.222,0.860,0.387,0.679,0.635,�k�k��,1.5,��
2020/12/13,09:00,0.677,0.969,0.616,1.220,0.861,0.387,0.679,0.637,�k,2.6,��
2020/12/13,09:10,0.678,0.969,0.615,1.221,0.860,0.385,0.678,0.638,�k,2.8,��
2020/12/13,09:20,0.677,0.971,0.616,1.223,0.859,0.386,0.680,0.638,�k,3.4,��
2020/12/13,09:30,0.675,0.972,0.615,1.219,0.860,0.386,0.679,0.638,�k,3.5,��
2020/12/13,09:40,0.676,0.972,0.615,1.220,0.859,0.386,0.678,0.638,�k�k��,3.5,��
2020/12/13,09:50,0.677,0.970,0.616,1.219,0.861,0.385,0.677,0.638,�k�k��,3.6,��
2020/12/13,10:00,0.678,0.969,0.616,1.221,0.862,0.385,0.678,0.638,�k,4.6,��
2020/12/13,10:10,0.675,0.970,0.615,1.222,0.861,0.385,0.677,0.637,�k�k��,4.9,�L
2020/12/13,10:20,0.677,0.970,0.615,1.220,0.862,0.386,0.680,0.639,�k,5.2,��
2020/12/13,10:30,0.676,0.968,0.614,1.221,0.860,0.385,0.676,0.637,�k,5.3,��
2020/12/13,10:40,0.676,0.973,0.615,1.219,0.860,0.387,0.678,0.637,�k,5.1,�L
2020/12/13,10:50,0.674,0.970,0.613,1.220,0.861,0.384,0.677,0.636,�k,5.6,�L
2020/12/13,11:00,0.676,0.969,0.615,1.219,0.861,0.385,0.677,0.638,�k,5.7,�L
2020/12/13,11:10,0.674,0.969,0.612,1.220,0.862,0.385,0.677,0.638,�k�k��,6.0,�L
2020/12/13,11:20,0.676,0.970,0.614,1.219,0.861,0.386,0.677,0.638,�k�k��,5.4,�L
2020/12/13,11:30,0.675,0.971,0.616,1.218,0.860,0.385,0.678,0.638,�k�k��,6.4,��
2020/12/13,11:40,0.675,0.971,0.616,1.219,0.862,0.385,0.677,0.639,�k�k��,6.8,�L
2020/12/13,11:50,0.676,0.971,0.615,1.219,0.860,0.386,0.675,0.638,�k�k��,8.2,�L
2020/12/13,12:00,0.678,0.969,0.615,1.219,0.862,0.387,0.676,0.637,�k�k��,8.8,�L
2020/12/13,12:10,0.677,0.969,0.618,1.219,0.861,0.392,0.678,0.638,�k�k��,9.9,�L
2020/12/13,12:20,0.675,0.965,0.618,1.213,0.858,0.394,0.676,0.639,�k�k��,9.6,�L
2020/12/13,12:30,0.677,0.962,0.616,1.212,0.856,0.391,0.676,0.637,�k�k��,11.6,�L
2020/12/13,12:40,0.675,0.963,0.616,1.213,0.853,0.391,0.675,0.636,�k,10.2,�L
2020/12/13,12:50,0.674,0.961,0.615,1.211,0.853,0.391,0.677,0.637,�k�k��,10.6,�L
2020/12/13,13:00,0.674,0.960,0.613,1.212,0.853,0.389,0.677,0.638,�k�k��,11.3,�L
2020/12/13,13:10,0.674,0.961,0.611,1.207,0.853,0.387,0.675,0.636,�k�k��,11.4,��
2020/12/13,13:20,0.670,0.961,0.612,1.210,0.851,0.386,0.676,0.636,�k�k��,10.4,��
2020/12/13,13:30,0.673,0.959,0.614,1.206,0.853,0.385,0.674,0.636,�k�k��,10.5,��
2020/12/13,13:40,0.671,0.961,0.612,1.208,0.848,0.384,0.674,0.635,�k,9.6,��
2020/12/13,13:50,0.670,0.962,0.611,1.205,0.849,0.384,0.674,0.634,�k,9.3,��
2020/12/13,14:00,0.671,0.960,0.611,1.204,0.849,0.384,0.676,0.636,�k,8.9,��
2020/12/13,14:10,0.669,0.960,0.610,1.205,0.849,0.384,0.675,0.637,�k,6.5,��
2020/12/13,14:20,0.672,0.961,0.610,1.204,0.847,0.384,0.674,0.636,�k�k��,7.5,��
2020/12/13,14:30,0.670,0.961,0.610,1.205,0.850,0.383,0.674,0.633,�k,6.6,��
2020/12/13,14:40,0.670,0.960,0.611,1.205,0.847,0.383,0.674,0.635,�k,4.7,��
2020/12/13,14:50,0.669,0.960,0.611,1.205,0.847,0.383,0.675,0.634,�k,3.6,��
2020/12/13,15:00,0.669,0.960,0.610,1.204,0.847,0.382,0.673,0.634,�k�k��,1.7,��
2020/12/13,15:10,0.670,0.959,0.610,1.203,0.849,0.384,0.675,0.633,�k�k��,1.9,��
2020/12/13,15:20,0.669,0.959,0.611,1.205,0.848,0.383,0.674,0.635,�k,2.3,��
2020/12/13,15:30,0.669,0.959,0.609,1.205,0.846,0.382,0.673,0.634,���k��,1.7,��
2020/12/13,15:40,0.669,0.962,0.611,1.204,0.846,0.384,0.676,0.634,�k��,2.0,��
2020/12/13,15:50,0.670,0.959,0.610,1.203,0.849,0.382,0.675,0.634,�k,2.5,��
2020/12/13,16:00,0.668,0.959,0.611,1.204,0.848,0.383,0.673,0.634,�k,3.7,��
2020/12/13,16:10,0.668,0.960,0.608,1.202,0.848,0.382,0.672,0.632,�k,3.2,��
2020/12/13,16:20,0.668,0.956,0.610,1.203,0.846,0.382,0.675,0.634,�k�k��,2.3,��
2020/12/13,16:30,0.667,0.958,0.609,1.202,0.846,0.381,0.673,0.634,�k�k��,2.0,��
2020/12/13,16:40,0.667,0.957,0.611,1.203,0.848,0.381,0.672,0.634,�k�k��,1.9,��
2020/12/13,16:50,0.668,0.956,0.608,1.205,0.847,0.382,0.673,0.633,�k,2.0,��
2020/12/13,17:00,0.669,0.959,0.608,1.205,0.847,0.382,0.673,0.633,�k�k��,3.3,��
2020/12/13,17:10,0.668,0.958,0.609,1.202,0.847,0.382,0.673,0.631,�k�k��,3.5,��
2020/12/13,17:20,0.666,0.956,0.608,1.202,0.848,0.382,0.673,0.633,�k�k��,5.0,��
2020/12/13,17:30,0.668,0.958,0.610,1.205,0.846,0.381,0.674,0.632,�k�k��,4.1,��
2020/12/13,17:40,0.668,0.959,0.609,1.206,0.848,0.382,0.672,0.633,�k�k��,2.3,��
2020/12/13,17:50,0.667,0.959,0.610,1.203,0.848,0.380,0.672,0.633,�k�k��,2.3,��
2020/12/13,18:00,0.667,0.958,0.608,1.204,0.847,0.381,0.672,0.633,�k�k��,3.4,��
2020/12/13,18:10,0.669,0.958,0.607,1.204,0.845,0.381,0.672,0.634,�k,3.5,��
2020/12/13,18:20,0.668,0.958,0.607,1.204,0.848,0.382,0.672,0.632,�k,2.2,��
2020/12/13,18:30,0.667,0.956,0.609,1.202,0.849,0.383,0.673,0.634,�k��,1.7,��
2020/12/13,18:40,0.669,0.960,0.608,1.205,0.849,0.384,0.672,0.634,�k��,1.9,��
2020/12/13,18:50,0.668,0.956,0.610,1.205,0.847,0.381,0.672,0.633,�k�k��,2.2,��
2020/12/13,19:00,0.666,0.957,0.608,1.204,0.848,0.382,0.674,0.633,�k��,1.2,��
2020/12/13,19:10,0.667,0.960,0.608,1.202,0.847,0.382,0.671,0.633,�k��,1.5,��
2020/12/13,19:20,0.668,0.958,0.605,1.203,0.848,0.382,0.673,0.634,��,1.2,��
2020/12/13,19:30,0.668,0.957,0.608,1.205,0.848,0.381,0.671,0.633,���k��,1.2,��
2020/12/13,19:40,0.667,0.958,0.608,1.205,0.847,0.382,0.671,0.633,���쐼,1.2,��
2020/12/13,19:50,0.668,0.957,0.607,1.202,0.848,0.382,0.673,0.634,��,1.2,��
2020/12/13,20:00,0.669,0.957,0.608,1.204,0.847,0.381,0.673,0.633,��,1.2,��
2020/12/13,20:10,0.667,0.958,0.611,1.207,0.848,0.381,0.673,0.632,���쐼,1.7,��
2020/12/13,20:20,0.670,0.958,0.609,1.204,0.848,0.383,0.672,0.634,���쐼,1.5,��
2020/12/13,20:30,0.667,0.959,0.609,1.204,0.848,0.381,0.672,0.634,���쐼,2.0,��
2020/12/13,20:40,0.668,0.956,0.609,1.206,0.846,0.381,0.674,0.633,�쐼,2.9,��
2020/12/13,20:50,0.668,0.956,0.609,1.202,0.849,0.382,0.674,0.634,�쐼,3.4,��
2020/12/13,21:00,0.668,0.956,0.608,1.205,0.846,0.382,0.672,0.632,�쐼,3.4,��
2020/12/13,21:10,0.667,0.958,0.608,1.205,0.847,0.382,0.673,0.632,�쐼,3.8,��
2020/12/13,21:20,0.668,0.957,0.609,1.205,0.846,0.381,0.673,0.632,�쐼,4.3,��
2020/12/13,21:30,0.668,0.957,0.609,1.206,0.845,0.382,0.673,0.633,�쐼,4.7,��
2020/12/13,21:40,0.667,0.958,0.608,1.204,0.846,0.380,0.674,0.632,�쐼,4.8,��
2020/12/13,21:50,0.667,0.958,0.608,1.204,0.845,0.382,0.673,0.634,��쐼,5.5,��
2020/12/13,22:00,0.667,0.957,0.608,1.206,0.846,0.382,0.673,0.632,��쐼,6.3,��
2020/12/13,22:10,0.666,0.959,0.609,1.207,0.845,0.382,0.672,0.633,��쐼,6.3,��
2020/12/13,22:20,0.667,0.958,0.608,1.206,0.846,0.383,0.674,0.633,��쐼,7.9,��
2020/12/13,22:30,0.669,0.956,0.608,1.204,0.848,0.383,0.673,0.633,��쐼,9.2,��
2020/12/13,22:40,0.666,0.959,0.607,1.205,0.845,0.382,0.672,0.634,��쐼,9.1,��
2020/12/13,22:50,0.668,0.956,0.608,1.202,0.848,0.382,0.674,0.634,��,9.7,��
2020/12/13,23:00,0.668,0.956,0.609,1.203,0.848,0.383,0.673,0.633,��,10.3,��
2020/12/13,23:10,0.669,0.956,0.610,1.204,0.847,0.382,0.674,0.632,��,10.2,��
2020/12/13,23:20,0.667,0.958,0.609,1.205,0.846,0.383,0.674,0.634,��쐼,9.4,��
2020/12/13,23:30,0.669,0.958,0.609,1.205,0.848,0.382,0.673,0.633,��쐼,10.2,��
2020/12/13,23:40,0.669,0.956,0.608,1.205,0.847,0.382,0.674,0.636,��쐼,9.7,��
2020/12/13,23:50,0.670,0.958,0.608,1.204,0.848,0.382,0.675,0.634,��쐼,9.1,��
